Location: Proctor
(47.8934°N, 114.3048°W)
Time: 20:15:30
(UTC+00:00)

Tiros 1 despin weight - Pass Details

Date: 30 June 2024
Orbit: 576 x 620 km, 48.2° (Epoch: 19 July)

Event Time Altitude Azimuth Distance (km) Brightness Sun altitude
Rises 15:39:12 0° 199° (SSW) 2,847 ? 36.5°
Reaches altitude 10° 15:42:09 10° 179° (S) 1,957 ? 37.0°
Maximum altitude 15:45:03 17° 139° (SE) 1,560 ? 37.5°
Drops below altitude 10° 15:47:58 10° 98° (E) 1,978 ? 38.0°
Sets 15:50:58 0° 79° (E) 2,892 ? 38.5°
